Location: Passau
(48.5830°N, 13.4830°E)
Time: 10:12:33
(UTC+01:00)

NOAA 19 - Pass Details

Date: 02 December 2021
Orbit: 841 x 860 km, 99.2° (Epoch: 26 January)

Event Time Altitude Azimuth Distance (km) Brightness Sun altitude
Rises 06:46:06 0° 25° (NNE) 3,428 8.4 -8.4°
Reaches altitude 10° 06:48:55 10° 39° (NE) 2,491 7.8 -8.0°
Maximum altitude 06:53:24 25° 93° (E) 1,669 7.7 -7.3°
Drops below altitude 10° 06:57:52 10° 147° (SSE) 2,485 8.7 -6.7°
Sets 07:00:40 0° 161° (SSE) 3,419 9.1 -6.2°
